Snowfall_Accumulation
0.0 0.0 0.0 0.0 0.0 0.0 0.0 0.0 0.0 0.0 0.0 0.0 0.0 0.0 0.0 0.0 0.0 0.0 0.0 0.0 0.0 0.8
0.0 0.0 0.0 0.0 0.0 0.0 0.0 0.0 0.0 0.0 0.0 0.0 0.0 0.0 0.0 0.0 0.0 0.0 0.0 0.0 0.0 0.0
0.0 0.0 0.0 0.0 0.0 0.0 0.0 0.0 0.0 0.0 0.0 0.0 0.0 0.0 0.0 0.0 0.0 0.0 0.0 0.0 0.0 0.0
0.0 0.0 0.0 0.0 0.0 0.0 0.0 0.0 0.0 0.0 0.0 0.0 0.0 0.0 0.0 0.0 0.0 0.0 0.0 0.0 0.0 0.0
0.0 0.0 0.2 0.0 0.0 0.0 0.0 0.0 0.0 0.0 0.0 0.0 0.1 0.1 0.2 0.2 0.1 0.1 0.1 0.1 0.0 0.0
0.0 0.7 0.3 0.4 0.4 0.2 0.3 0.1 0.2 0.2 0.3 0.3 0.2 0.6 0.9 0.7 0.0 0.4 0.6 0.4 0.3 0.1
0.4 0.6 1.0 1.3 0.6 0.6 0.7 0.4 0.3 0.4 0.5 0.4 0.5 1.8 1.5 1.7 1.3 1.3 1.6 1.6 1.3 0.9
0.0 0.1 0.2 0.2 0.5 1.0 0.8 0.5 0.4 0.8 0.7 0.9 1.2 2.0 3.6 3.6 3.6 2.9 4.4 3.9 2.9 3.0
0.0 0.0 0.1 0.1 0.1 0.1 0.8 0.8 0.7 0.5 0.4 1.1 1.7 2.5 3.0 4.3 5.4 4.5 3.1 4.1 4.7 3.6
0.0 0.0 0.0 0.0 0.0 0.1 0.0 0.1 1.2 1.2 1.0 0.5 0.5 1.6 1.9 2.4 4.9 6.7 6.8 5.3 4.3 4.0
0.0 0.0 0.3 0.9 1.2 1.3 1.1 0.7 0.4 1.0 1.4 1.8 2.1 1.8 1.4 1.6 1.5 2.8 5.6 5.8 4.9 4.2
0.4 0.6 2.5 2.9 2.9 2.5 1.9 2.4 2.2 2.6 3.3 2.8 2.7 2.3 2.0 1.2 1.4 1.7 1.5 1.8 3.7 4.2
3.0 3.4 4.0 3.6 3.4 3.2 2.7 3.3 3.0 3.9 2.9 1.9 3.0 2.4 1.8 1.4 2.0 3.2 1.6 1.1 1.8 4.1
5.3 5.3 4.5 4.9 4.3 3.8 4.3 3.7 4.0 3.6 2.7 2.5 2.6 2.9 1.9 1.4 2.6 4.0 6.7 4.4 5.7 4.2